TimeCDT,TemperatureF,Dew PointF,Humidity,Sea Level PressureIn,VisibilityMPH,Wind Direction,Wind SpeedMPH,Gust SpeedMPH,PrecipitationIn,Events,Conditions,WindDirDegrees,DateUTC
12:53 AM,26.1,19.0,75,30.38,10.0,Calm,Calm,-,N/A,,Clear,0,2013-03-28 05:53:00
1:53 AM,25.0,19.0,78,30.38,10.0,Calm,Calm,-,N/A,,Clear,0,2013-03-28 06:53:00
2:53 AM,23.0,18.0,81,30.38,10.0,Calm,Calm,-,N/A,,Clear,0,2013-03-28 07:53:00
3:53 AM,23.0,19.0,85,30.38,10.0,Calm,Calm,-,N/A,,Clear,0,2013-03-28 08:53:00
4:53 AM,21.9,18.0,85,30.38,10.0,Calm,Calm,-,N/A,,Clear,0,2013-03-28 09:53:00
5:53 AM,21.9,18.0,85,30.38,10.0,Calm,Calm,-,N/A,,Partly Cloudy,0,2013-03-28 10:53:00
6:53 AM,21.0,18.0,88,30.40,8.0,Calm,Calm,-,N/A,,Clear,0,2013-03-28 11:53:00
7:53 AM,23.0,19.9,88,30.40,8.0,Calm,Calm,-,N/A,,Clear,0,2013-03-28 12:53:00
8:53 AM,27.0,21.9,81,30.40,10.0,Calm,Calm,-,N/A,,Clear,0,2013-03-28 13:53:00
9:53 AM,30.9,21.9,69,30.41,10.0,Calm,Calm,-,N/A,,Clear,0,2013-03-28 14:53:00
10:53 AM,35.1,19.0,52,30.40,10.0,Calm,Calm,-,N/A,,Clear,0,2013-03-28 15:53:00
11:53 AM,37.9,21.9,53,30.39,10.0,NNW,3.5,-,N/A,,Clear,330,2013-03-28 16:53:00
12:53 PM,42.1,19.0,40,30.38,10.0,Calm,Calm,-,N/A,,Clear,0,2013-03-28 17:53:00
1:53 PM,44.1,18.0,35,30.37,10.0,Calm,Calm,-,N/A,,Clear,0,2013-03-28 18:53:00
2:53 PM,45.0,16.0,31,30.35,10.0,Calm,Calm,-,N/A,,Clear,0,2013-03-28 19:53:00
3:53 PM,46.0,19.0,34,30.32,10.0,North,4.6,-,N/A,,Clear,360,2013-03-28 20:53:00
4:53 PM,45.0,19.9,37,30.32,10.0,Calm,Calm,-,N/A,,Overcast,0,2013-03-28 21:53:00
5:53 PM,45.0,21.0,39,30.32,10.0,Calm,Calm,-,N/A,,Overcast,0,2013-03-28 22:53:00
6:53 PM,42.1,21.9,45,30.32,10.0,SSW,3.5,-,N/A,,Overcast,210,2013-03-28 23:53:00
7:53 PM,41.0,21.0,45,30.33,10.0,SW,3.5,-,N/A,,Overcast,230,2013-03-29 00:53:00
8:53 PM,39.0,19.9,46,30.34,10.0,Calm,Calm,-,N/A,,Mostly Cloudy,0,2013-03-29 01:53:00
9:53 PM,34.0,23.0,64,30.35,10.0,Calm,Calm,-,N/A,,Scattered Clouds,0,2013-03-29 02:53:00
10:53 PM,32.0,21.0,64,30.35,10.0,Calm,Calm,-,N/A,,Clear,0,2013-03-29 03:53:00
11:53 PM,28.9,21.0,72,30.34,10.0,Calm,Calm,-,N/A,,Clear,0,2013-03-29 04:53:00